Regional Weather Roundup
Issued by NWS

Home | Current Version | Previous Version | Graphics & Text | Print | Product List | Glossary On
Versions: 1 2 3 4 5 6 7 8 9 10 11 12 13 14 15 16 17 18 19 20 21 22 23 24 25 26 27 28 29 30 31 32 33 34 35 36 37 38 39 40 41 42 43 44 45 46 47 48 49 50
000
ASUS45 KABQ 280310
RWRNM
NEW MEXICO REGIONAL WEATHER ROUNDUP
NATIONAL WEATHER SERVICE ALBUQUERQUE NM
900 PM MDT THU AUG 27 2015

NOTE: "FAIR" MEANS FEW OR NO CLOUDS BELOW 12,000 FEET AGL WITH NO
       SIGNIFICANT WEATHER OR OBSTRUCTIONS TO VISION.

      THIS PRODUCT IS RELEASED AS TWO VERSIONS.  ONE VERSION NEAR
      THE TOP OF THE HOUR CONTAINING PRELIMINARY DATA FROM ALBUQUERQUE
      AND OTHER STATIONS.  A FINAL VERSION WITH ADDITIONAL DATA IS
      ISSUED ABOUT 10 MINUTES AFTER THE HOUR.

NMZ501-503-504-510>518-280400-
NORTHWEST PLATEAU/NORTHCENTRAL MOUNTAINS

CITY           SKY/WX    TMP DP  RH WIND       PRES   REMARKS
FARMINGTON     CLEAR     73  50  44 W6        30.18R
LOS ALAMOS     PTCLDY    70  46  42 W5        30.31R
SANTA FE       PTCLDY    69  46  43 NW6       30.23R
TAOS           CLEAR     61  46  59 E5        30.30R
ANGEL FIRE     FAIR      53  50  90 CALM      30.40R

$$
NMZ402-403-502-505>509-280400-
WESTCENTRAL MOUNTAINS/SOUTHWEST MOUNTAINS

CITY           SKY/WX    TMP DP  RH WIND       PRES   REMARKS
GALLUP         MOCLDY    65  56  72 S5        30.29R
GRANTS         CLOUDY    65  59  83 S3        30.31R
SILVER CITY      N/A     72  55  56 NW12      30.23R

$$
NMZ407-409-411-412-280400-
SOUTHERN DESERTS

CITY           SKY/WX    TMP DP  RH WIND       PRES   REMARKS
LORDSBURG      FAIR      77  52  41 NW8       30.14R
DEMING         CLOUDY    82  53  36 NW8       30.11R
LAS CRUCES     CLOUDY    81  51  35 N6        30.12R
HOLLOMAN AFB   CLOUDY    82  59  45 E7        30.08R
ALAMOGORDO     MOCLDY    82  54  36 E13       30.11R
T OR C         CLOUDY    80  54  40 W8        30.15R

$$
NMZ519>523-280400-
CENTRAL VALLEYS/CENTRAL HIGHLANDS

CITY           SKY/WX    TMP DP  RH WIND       PRES   REMARKS
ALBUQUERQUE    CLOUDY    78  55  44 SW8       30.18R
DOUBLE EAGLE   MOCLDY    70  57  64 W6        30.22R
MORIARTY ARPT  FAIR      68  54  60 W8        30.25R
CLINES CORNERS MOCLDY    67  51  56 W14       30.28R
BELEN          FAIR      73  58  58 W10       30.18R
SOCORRO        FAIR      73  58  58 CALM      30.16R

$$
NMZ524>526-539-540-280400-
SOUTHCENTRAL MOUNTAINS

CITY           SKY/WX    TMP DP  RH WIND       PRES   REMARKS
RUIDOSO        MOCLDY    63  54  72 MISG      30.33R

$$
NMZ527>531-280400-
NORTHEAST HIGHLANDS/NORTHEAST PLAINS

CITY           SKY/WX    TMP DP  RH WIND       PRES   REMARKS
LAS VEGAS      PTCLDY    67  46  47 W8        30.24R
RATON          MOCLDY    70  49  47 N8        30.18R
CLAYTON        PTCLDY    74  56  53 SW15      30.07R

$$
NMZ532>537-280400-
EASTCENTRAL PLAINS

CITY           SKY/WX    TMP DP  RH WIND       PRES   REMARKS
TUCUMCARI      MOCLDY    80  56  43 SW14      30.02F
CANNON AFB     PTCLDY    74  59  58 SW6       30.08R
CLOVIS AIRPORT PTCLDY    72  57  60 SE7       30.10R

$$
NMZ028-029-538-280400-
SOUTHEAST PLAINS

CITY           SKY/WX    TMP DP  RH WIND       PRES   REMARKS
ROSWELL        LGT RAIN  81  58  45 S8        30.05S
ARTESIA        MOCLDY    82  59  44 NW8       30.07R
CARLSBAD       MOCLDY    87  52  29 SW8       30.03


$$



USA.gov is the U.S. government's official web portal to all federal, state and local government web resources and services.